TimeCDT,TemperatureF,Dew PointF,Humidity,Sea Level PressureIn,VisibilityMPH,Wind Direction,Wind SpeedMPH,Gust SpeedMPH,PrecipitationIn,Events,Conditions,WindDirDegrees,DateUTC
12:55 AM,36.0,28.0,73,29.94,9.0,West,27.6,36.8,0.00,Snow,Light Snow,260,2012-10-05 05:55:00
1:55 AM,36.0,27.0,70,29.93,9.0,West,29.9,42.6,0.00,Snow,Light Snow,270,2012-10-05 06:55:00
2:21 AM,35.6,28.4,75,29.89,9.0,West,25.3,34.5,0.00,Snow,Light Snow,270,2012-10-05 07:21:00
2:55 AM,36.0,27.0,70,29.93,9.0,West,26.5,35.7,0.00,Snow,Light Snow,270,2012-10-05 07:55:00
3:55 AM,36.0,26.1,67,29.94,9.0,West,25.3,34.5,0.00,Snow,Light Snow,270,2012-10-05 08:55:00
4:20 AM,35.6,26.6,70,29.89,10.0,West,25.3,33.4,0.00,,Overcast,260,2012-10-05 09:20:00
4:55 AM,36.0,26.1,67,29.93,10.0,West,25.3,38.0,0.00,,Overcast,270,2012-10-05 09:55:00
5:03 AM,35.6,26.6,70,29.88,10.0,West,20.7,33.4,N/A,,Overcast,270,2012-10-05 10:03:00
5:55 AM,35.1,25.0,67,29.93,10.0,West,24.2,34.5,N/A,,Overcast,270,2012-10-05 10:55:00
6:55 AM,35.1,24.1,64,29.94,10.0,West,27.6,38.0,0.00,,Light Drizzle,260,2012-10-05 11:55:00
7:55 AM,35.1,24.1,64,29.94,10.0,West,20.7,33.4,0.00,,Overcast,270,2012-10-05 12:55:00
8:55 AM,36.0,24.1,62,29.95,10.0,West,26.5,38.0,N/A,,Overcast,270,2012-10-05 13:55:00
9:06 AM,35.6,24.8,65,29.89,10.0,West,23.0,34.5,N/A,,Overcast,270,2012-10-05 14:06:00
9:46 AM,37.4,24.8,60,29.91,10.0,West,24.2,35.7,N/A,,Overcast,270,2012-10-05 14:46:00
9:55 AM,37.0,24.1,59,29.96,10.0,West,23.0,31.1,N/A,,Overcast,280,2012-10-05 14:55:00
10:55 AM,37.0,25.0,62,29.97,10.0,West,27.6,38.0,N/A,,Overcast,270,2012-10-05 15:55:00
11:29 AM,37.4,24.8,60,29.92,10.0,West,27.6,35.7,N/A,,Overcast,270,2012-10-05 16:29:00
11:55 AM,39.0,25.0,57,29.97,10.0,West,21.9,34.5,N/A,,Overcast,280,2012-10-05 16:55:00
12:55 PM,39.9,25.0,55,29.97,10.0,WNW,25.3,34.5,0.00,Rain,Light Rain,290,2012-10-05 17:55:00
1:55 PM,41.0,27.0,57,29.97,10.0,WNW,23.0,33.4,0.00,,Mostly Cloudy,290,2012-10-05 18:55:00
2:55 PM,39.9,28.0,63,29.98,8.0,West,24.2,36.8,0.00,,Unknown,280,2012-10-05 19:55:00
3:55 PM,37.9,30.9,76,29.99,3.0,WNW,15.0,25.3,0.00,Snow,Light Snow,290,2012-10-05 20:55:00
3:59 PM,37.4,30.2,75,29.94,2.5,West,15.0,-,0.00,Snow,Light Snow,280,2012-10-05 20:59:00
4:08 PM,37.4,32.0,81,29.94,6.0,West,19.6,26.5,0.00,Snow,Light Snow,280,2012-10-05 21:08:00
4:55 PM,37.0,28.9,73,30.00,9.0,WNW,17.3,28.8,0.00,Snow,Light Snow,290,2012-10-05 21:55:00
5:55 PM,36.0,30.9,82,30.01,4.0,West,15.0,28.8,0.00,Snow,Light Snow,280,2012-10-05 22:55:00
6:55 PM,35.1,32.0,89,30.02,5.0,West,15.0,25.3,0.00,Snow,Light Snow,280,2012-10-05 23:55:00
7:55 PM,36.0,32.0,86,30.04,10.0,WNW,18.4,25.3,0.00,,Overcast,290,2012-10-06 00:55:00
8:55 PM,35.1,32.0,89,30.05,9.0,WNW,11.5,19.6,0.00,Rain-Snow,Light Rain,290,2012-10-06 01:55:00
9:04 PM,35.6,32.0,87,30.00,10.0,WNW,13.8,20.7,0.00,Rain-Snow,Light Rain,300,2012-10-06 02:04:00
9:11 PM,35.6,32.0,87,30.00,9.0,WNW,13.8,20.7,0.00,Snow,Light Snow,300,2012-10-06 02:11:00
9:18 PM,35.6,32.0,87,30.00,7.0,WNW,13.8,-,0.00,Snow,Light Snow,300,2012-10-06 02:18:00
9:49 PM,35.6,32.0,87,30.01,9.0,NW,13.8,-,0.00,Snow,Light Snow,310,2012-10-06 02:49:00
9:55 PM,35.1,32.0,89,30.06,9.0,NW,12.7,-,0.00,Snow,Light Snow,310,2012-10-06 02:55:00
10:55 PM,35.1,32.0,89,30.08,8.0,NW,8.1,-,0.00,Snow,Light Snow,320,2012-10-06 03:55:00
11:02 PM,35.6,32.0,87,30.03,6.0,NNW,10.4,-,0.00,Snow,Light Snow,330,2012-10-06 04:02:00
11:21 PM,35.6,32.0,87,30.03,5.0,NNW,9.2,16.1,0.00,Snow,Light Snow,330,2012-10-06 04:21:00
11:36 PM,33.8,30.2,87,30.04,9.0,NNW,12.7,18.4,0.00,Snow,Light Snow,330,2012-10-06 04:36:00
11:55 PM,34.0,30.9,89,30.09,9.0,NNW,12.7,19.6,0.00,Snow,Light Snow,340,2012-10-06 04:55:00